Location: La Brionne
(46.1728°N, 1.7849°E)
Time: 02:29:21
(UTC+00:00)

N. Korean satellite - Visible Passes

Search period start: 09 December 2022 00:00
Search period end: 19 December 2022 00:00
Orbit: 420 x 452 km, 97.3° (Epoch: 08 December)

Date Brightness Start Highest point End Pass type
(mag) Time Alt. Az. Time Alt. Az. Time Alt. Az.
09 Dec 7.8 04:52:42 10° NNE 04:55:54 38° E 04:59:02 10° SSE visible
09 Dec 8.1 06:26:11 10° NNW 06:28:04 14° WNW 06:29:57 10° W visible
09 Dec 8.8 16:56:45 10° SSW 16:59:43 28° W 17:02:44 10° NW visible
10 Dec 9.7 04:14:52 10° ENE 04:16:32 13° E 04:18:11 10° ESE visible
10 Dec 6.8 05:46:02 10° N 05:49:14 39° WNW 05:52:21 10° SW visible
11 Dec 6.8 05:06:46 10° NNE 05:10:07 60° E 05:13:24 10° S visible
11 Dec 8.4 06:41:58 10° WNW 06:42:05 10° WNW 06:42:14 10° WNW visible
11 Dec 9.5 17:11:25 10° SW 17:13:57 19° W 17:16:30 10° NW visible
12 Dec 9.1 04:28:16 10° NE 04:30:44 19° E 04:33:10 10° SE visible
12 Dec 7.3 06:00:22 10° N 06:03:14 26° WNW 06:06:04 10° SW visible
13 Dec 6.2 05:20:44 10° NNE 05:24:07 87° W 05:27:25 10° SSW visible
13 Dec 9.8 17:26:15 10° WSW 17:28:00 13° W 17:29:46 10° WNW visible
14 Dec 8.5 04:44:40 27° E 04:44:43 27° E 04:47:35 10° SSE visible
14 Dec 8.0 06:14:37 10° NNW 06:18:06 16° W 06:19:24 10° WSW visible
14 Dec 8.1 16:45:14 10° S 16:48:26 39° W 16:51:40 10° NNW visible
15 Dec 7.2 05:39:03 34° SW 05:39:03 34° SW 05:41:07 10° SSW visible
16 Dec 8.2 04:59:46 27° SSE 04:59:46 27° SSE 05:01:36 10° S visible
16 Dec9.006:33:10WSW06:33:10WSW06:27:36NNWvisible
16 Dec 8.9 16:59:14 10° SSW 17:02:09 26° W 17:05:06 10° NW visible
17 Dec 9.7 04:20:22 10° ESE 04:20:22 10° ESE 04:20:29 10° ESE visible
17 Dec 8.4 05:53:44 15° SW 05:53:44 15° SW 05:54:29 10° SW visible
18 Dec 8.5 05:14:13 19° S 05:14:13 19° S 05:15:15 10° S visible
18 Dec 9.5 17:13:14 10° SW 17:15:42 19° W 17:18:10 10° NW visible
